Location: *
(57.8420°S, 159.8600°W)
Time: 04:06:04
(UTC+00:00)

ADEOS - Pass Details

Date: 18 May 2021
Orbit: 792 x 795 km, 98.9° (Epoch: 23 June)

Event Time Altitude Azimuth Distance (km) Brightness Sun altitude
Rises 04:02:14 0° 163° (SSE) 3,344 6.5 -12.2°
Reaches altitude 10° 04:04:35 10° 161° (SSE) 2,408 5.7 -12.5°
Maximum altitude 04:09:56 81° 73° (ENE) 827 3.6 -13.1°
Drops below altitude 10° 04:15:14 10° 345° (NNW) 2,383 6.5 -13.8°
Sets 04:17:33 0° 344° (NNW) 3,306 7.2 -14.1°
